NANOSAT 1B

Satellite information

Favourite Embed

Satellite Type and Status

PAYLOADIN ORBIT

Key statistics

Satellite NANOSAT 1B at a glance.

Uptime

5884

Days in orbit

Revolutions

≈ 14.9

Per day

Orbit

SSO

Sun Synchronous Orbit

Inclination

98.1

Latest

Satellite identification and parameters

Extended collection of information and parameters for NANOSAT 1B.

Object identification

Identified? True

Debris? False

Object name: NANOSAT 1B

International designator: 2009-041E

Object number (NORAD): 35685

Object ID (CCSDS): 35685

Country: SPAIN (SPN)

Current information (Y/N): Y

RCS size: MEDIUM

Orbital parameters

Period: 96.541 minutes

Inclination: 98.0977 deg

SMA: 6971.109 km

Apoapsis: 628.668 km

Periapsis: 557.28 km

RAAN: 355.2926 deg

Eccentricy: 0.00512027

Argument of periapsis: 18.3408 deg

Mean anomaly: 341.9641 deg

Mean motion: 14.91591592 rev/day

Mean motion (dot): 0.00002804 rev/day2

B* drag term: 0.00027872045 1/REarth

Two-line elements (TLE)

Creation date: Sept. 7, 2025, 3:09 a.m.

Reference frame: TEME

Reference center: EARTH

Epoch: Sept. 6, 2025, 7:39 p.m. UTC

TLE line 0: 0 NANOSAT 1B

TLE line 1: 1 35685U 09041E 25249.81901892 .00002804 00000-0 27872-3 0 9994

TLE line 2: 2 35685 98.0977 355.2926 0051203 18.3408 341.9641 14.91591592872153

Live tracking on map

Real-time ground track for satellite NANOSAT 1B.

In-orbit conjunctions

There are no conjunctions computed for NANOSAT 1B, at the moment. Check back to stay up to date, as we update our databases every day.

Go to all conjunctions

Associated space launch

Emirati Earth observation satellite. Launched with 5 secondary payloads.

NANOSAT 1B was lifted into orbit during the mission ‘Dnepr | DubaiSat 1’, on board a Dnepr space rocket.

The launch took place on July 29, 2009, 6:46 p.m. from 109/95.

For more information about the launch, click the button.

Launch to space Dnepr | DubaiSat 1
Dnepr | DubaiSat 1

Agency: N/A

Status: Launch Successful

Launch date: July 29, 2009, 6:46 p.m. UTC

Rocket: Dnepr

Launch pad: 109/95

Location: Baikonur Cosmodrome, Republic of Kazakhstan

...

Latest news about this satellite

There are no fresh news available about this satellite. Check back as we update our databases every day.


Newsletter sign-up

Weekly statistics, charts and insights to help you stay on top of the space industry.